Location: *
(49.5667°N, 1.3667°W)
Time: 22:54:42
(UTC+00:00)

HJ-1C - Pass Details

Date: 20 September 2019
Orbit: 435 x 449 km, 97.2° (Epoch: 14 October)

Event Time Altitude Azimuth Distance (km) Brightness Sun altitude
Rises 18:37:34 0° 150° (SSE) 2,438 6.8 -5.5°
Reaches altitude 10° 18:39:38 10° 143° (SE) 1,574 5.7 -5.8°
Maximum altitude 18:42:50 42° 71° (ENE) 660 3.8 -6.3°
Drops below altitude 10° 18:46:05 10° 0° (N) 1,592 6.3 -6.9°
Sets 18:48:11 0° 353° (N) 2,470 7.4 -7.2°
